User: anonymous
Location: NC_16_and_73
(35.4490°N, 81.0150°W)
Time: 02:15:19
(UTC-04:00)
Language:

Iridium 63 - Orbit

View from above orbital plane
View from above orbital plane
View from above satellite
View from above satellite

Ground track
Ground track

The orbit data is extracted from the following two-line orbital elements,

1 25286U 98021B   14242.40167697  .00000181  00000-0  57674-4 0  9461
2 25286 086.3973 291.2872 0002311 112.9695 305.8726 14.34222067858566
Epoch (UTC): 30 August 2014 09:38:24
Eccentricity: 0.0002311
inclination: 86.3973°
perigee height: 776 km
apogee height: 779 km
right ascension of ascending node: 291.2872°
argument of perigee: 112.9695°
revolutions per day: 14.34222067
mean anomaly at epoch: 305.8726°
orbit number at epoch: 85856

The dashed part of the orbit path shows where the satellite is in the earth's shadow,  

DLR